VA7NEZ Weather Reports


Display with metric or nautical units.
time (UTC)temp
F
wind
direction
speed
MPH
gust
MPH
rain 1hr
in
rain 24hr
in
rain mn
in
humidity
%
barometer
mb
20260504100402 50 0 0.0 0.0 0.00 0.00 0.00 65 1011.4
20260504081407 53 0 0.0 0.0 0.00 0.00 0.00 61 1011.0
20260504045127 64 3 0.0 1.0 0.00 0.00 0.00 48 1010.4
20260504044202 32 3 0.0 1.0 0.00 0.00 0.00 100 1010.2
20260504043342 65 0 0.0 0.0 0.00 0.00 0.00 51 1010.2
20260504042432 66 0 0.0 0.0 0.00 0.00 0.00 45 1010.2
20260504041552 67 279 0.0 1.0 0.00 0.00 0.00 43 1010.2
20260504040727 67 0 0.0 0.0 0.00 0.00 0.00 43 1010.0
20260504035912 69 0 0.0 0.0 0.00 0.00 0.00 40 1010.0
20260504034936 70 0 0.0 0.0 0.00 0.00 0.00 39 1009.8
20260504033122 72 278 0.0 1.0 0.00 0.00 0.00 36 1009.8
20260504032312 73 0 0.0 0.0 0.00 0.00 0.00 35 1009.8
20260504031417 74 0 0.0 0.0 0.00 0.00 0.00 35 1009.7
20260504030517 75 0 0.0 0.0 0.00 0.00 0.00 33 1009.9
20260504025708 76 0 0.0 0.0 0.00 0.00 0.00 32 1009.7
20260504024017 78 0 0.0 0.0 0.00 0.00 0.00 28 1009.6
20260504023217 79 0 0.0 0.0 0.00 0.00 0.00 27 1009.7
20260504022256 80 288 0.0 1.0 0.00 0.00 0.00 26 1009.7
20260504020422 84 277 0.0 1.0 0.00 0.00 0.00 22 1009.8
20260504015437 84 290 1.0 2.0 0.00 0.00 0.00 22 1009.7
20260504014513 84 281 0.0 1.0 0.00 0.00 0.00 23 1009.6
20260504013622 83 0 0.0 0.0 0.00 0.00 0.00 22 1009.8
20260504012705 82 293 0.0 1.0 0.00 0.00 0.00 24 1009.9
20260504011832 84 272 0.0 1.0 0.00 0.00 0.00 23 1009.9
20260504011027 87 283 0.0 2.0 0.00 0.00 0.00 21 1010.1
20260504010052 86 298 0.0 1.0 0.00 0.00 0.00 22 1010.1
20260504005220 86 272 0.0 1.0 0.00 0.00 0.00 21 1010.2
20260504003242 32 214 0.0 1.0 0.00 0.00 0.00 100 1010.5
20260504000737 85 304 1.0 3.0 0.00 0.00 0.00 20 1010.7
20260503235935 88 327 1.0 4.0 0.00 0.00 0.00 18 1010.7
20260503234947 85 296 1.0 2.0 0.00 0.00 0.00 21 1010.8
20260503234117 85 298 0.0 1.0 0.00 0.00 0.00 21 1011.0
20260503233132 87 281 0.0 1.0 0.00 0.00 0.00 21 1010.9
20260503232157 32 286 1.0 2.0 0.00 0.00 0.00 100 1011.2
20260503230327 93 272 2.0 3.0 0.00 0.00 0.00 16 1011.5
20260503225447 84 295 2.0 3.0 0.00 0.00 0.00 21 1011.5
20260503224517 84 261 1.0 2.0 0.00 0.00 0.00 21 1011.7
20260503223537 84 295 1.0 3.0 0.00 0.00 0.00 22 1011.7
20260503222602 90 285 1.0 2.0 0.00 0.00 0.00 20 1011.8
20260503221623 100 299 1.0 3.0 0.00 0.00 0.00 15 1012.1
20260503220632 100 288 1.0 3.0 0.00 0.00 0.00 15 1012.0
20260503214822 80 295 0.0 2.0 0.00 0.00 0.00 24 1012.4
20260503214022 80 301 2.0 4.0 0.00 0.00 0.00 24 1012.5
20260503213127 79 287 0.0 3.0 0.00 0.00 0.00 24 1012.7
20260503205727 32 121 0.0 2.0 0.00 0.00 0.00 100 1013.2
20260503203942 76 198 1.0 2.0 0.00 0.00 0.00 26 1013.5
20260503202216 74 270 1.0 2.0 0.00 0.00 0.00 26 1013.8
20260503201341 73 290 2.0 3.0 0.00 0.00 0.00 29 1013.9
20260503194707 71 282 0.0 1.0 0.00 0.00 0.00 33 1014.3
20260503192901 69 222 0.0 1.0 0.00 0.00 0.00 33 1014.6
20260503192017 69 299 2.0 3.0 0.00 0.00 0.00 34 1014.9
20260503191017 68 93 0.0 1.0 0.00 0.00 0.00 35 1015.1
20260503190117 68 305 1.0 3.0 0.00 0.00 0.00 36 1015.3
20260503185222 68 256 1.0 3.0 0.00 0.00 0.00 37 1015.5
20260503184327 67 298 0.0 1.0 0.00 0.00 0.00 39 1015.6
20260503183402 32 289 1.0 4.0 0.00 0.00 0.00 100 1015.8
20260503182542 66 299 0.0 2.0 0.00 0.00 0.00 39 1015.8
20260503180637 64 301 1.0 2.0 0.00 0.00 0.00 40 1016.1
20260503174836 63 306 0.0 2.0 0.00 0.00 0.00 42 1016.3
20260503171337 61 0 0.0 0.0 0.00 0.00 0.00 47 1016.7
20260503170348 60 0 0.0 0.0 0.00 0.00 0.00 49 1016.8
20260503150827 53 0 0.0 0.0 0.00 0.00 0.00 61 1017.5
20260503131041 44 0 0.0 0.0 0.00 0.00 0.00 77 1017.3
20260503130227 44 0 0.0 0.0 0.00 0.00 0.00 77 1017.3